This demonstration page uses our WeatherBlox Daily Observations layout. Learn more.

Left ArrowRight Arrow

Hourly Observations for May 5, 2020

Temp ( °F °C ) Dew Point ( °F °C ) Humidity (%) Winds ( mph kmh ) Pressure ( in mb ) Visibility ( mi km ) Precip ( " mm )
12:53 am 00:53 Clear 57 13.9 42 5.6 58 58 ENE 9 15 29.97 1015 10 16.0934 N/A
1:53 am 01:53 Mostly Cloudy 54 12.2 42 5.6 64 64 ENE 12 19 29.94 1014 10 16.0934 N/A
2:53 am 02:53 Mostly Cloudy 53 11.7 41 5 64 64 E 12 19 29.92 1013 10 16.0934 N/A
3:53 am 03:53 Cloudy 52 11.1 40 4.4 64 64 E 10 17 29.92 1013 10 16.0934 N/A
4:53 am 04:53 Cloudy with Light Rain 51 10.6 38 3.3 61 61 ENE 12 19 29.94 1014 10 16.0934 0.001 0.001
5:53 am 05:53 Cloudy with Light Rain 47 8.3 40 4.4 77 77 E 14 22 29.92 1013 10 16.0934 0.05 1.27
6:53 am 06:53 Cloudy with Light Rain 45 7.2 39 3.9 80 80 E 12 19 29.91 1013 10 16.0934 0.03 0.762
7:53 am 07:53 Cloudy with Light Rain 46 7.8 37 2.8 71 71 E 12 19 29.92 1013 10 16.0934 0.001 0.001
9:53 am 09:53 Cloudy 46 7.8 35 1.7 66 66 ENE 10 17 29.88 1012 10 16.0934 0.01 0.254
10:53 am 10:53 Cloudy 47 8.3 33 0.6 59 59 E 10 17 29.88 1012 10 16.0934 N/A
11:53 am 11:53 Cloudy 48 8.9 31 -0.6 52 52 E 13 20 29.85 1011 10 16.0934 N/A
12:53 pm 12:53 Cloudy 50 10 32 undefined 50 50 E 10 17 29.83 1010 10 16.0934 N/A
1:53 pm 13:53 Cloudy 53 11.7 35 1.7 51 51 E 7 11 29.82 1010 10 16.0934 N/A
2:53 pm 14:53 Cloudy 52 11.1 34 1.1 50 50 NNE 6 9 29.81 1009 10 16.0934 N/A
3:53 pm 15:53 Cloudy 53 11.7 34 1.1 48 48 N 6 9 29.82 1010 10 16.0934 N/A
4:53 pm 16:53 Cloudy 53 11.7 33 0.6 47 47 N N/A 29.83 1010 10 16.0934 N/A
5:53 pm 17:53 Cloudy 53 11.7 33 0.6 47 47 N 7 11 29.84 1011 10 16.0934 N/A
6:53 pm 18:53 Cloudy 50 10 35 1.7 57 57 N 13 20 29.86 1011 10 16.0934 N/A
7:53 pm 19:53 Cloudy 50 10 34 1.1 54 54 N 9 15 29.88 1012 10 16.0934 N/A
8:53 pm 20:53 Cloudy 49 9.4 34 1.1 56 56 N 9 15 29.9 1012 10 16.0934 N/A
9:53 pm 21:53 Cloudy 47 8.3 34 1.1 61 61 N 6 9 29.93 1014 10 16.0934 N/A
10:53 pm 22:53 Cloudy 46 7.8 35 1.7 66 66 VRB 6 9 29.94 1014 10 16.0934 N/A
11:53 pm 23:53 Cloudy 44 6.7 37 2.8 76 76 N 10 17 29.95 1014 10 16.0934 N/A

Powered by AerisWeather